When you browse on this site, cookies collect data to enhance your experience and personalize the content and advertising you see.
Visit our Privacy Policy to learn more. By continuing to use the site, you agree to this use of cookies and data.
  • In Österreich
  • Länderverzeichnis
  • Für 7 Tage
  • Wassertemperatur
  • Wetterkarte
  • News
  • Widgets
  • user-avatar
    Anmelden

    Stündliche Wetter Bad Tatzmanndorf

    Heute, 23 Oktober, Mittwoch

    Zeit Temperatur Niederschläge Wind Luftdruck Luftfeuchtigkeit
    00:00 +14°C° 0 mm 1 m/S 732 mmHg 90%
    01:00 +14°C° 0 mm 1 m/S 731 mmHg 91%
    02:00 +14°C° 0 mm 1 m/S 731 mmHg 91%
    03:00 +14°C° 0 mm 1 m/S 731 mmHg 91%
    04:00 +13°C° 0 mm 1 m/S 731 mmHg 92%
    05:00 +13°C° 0 mm 1 m/S 731 mmHg 92%
    06:00 +13°C° 0 mm 1 m/S 730 mmHg 92%
    07:00 +13°C° 0 mm 1 m/S 730 mmHg 93%
    08:00 +15°C° 0 mm 1 m/S 730 mmHg 85%
    09:00 +17°C° 0 mm 2 m/S 730 mmHg 77%
    10:00 +19°C° 0 mm 2 m/S 730 mmHg 69%
    11:00 +20°C° 0 mm 3 m/S 730 mmHg 64%
    12:00 +21°C° 0 mm 3 m/S 730 mmHg 59%
    13:00 +22°C° 0 mm 3 m/S 730 mmHg 55%
    14:00 +22°C° 0 mm 3 m/S 729 mmHg 59%
    15:00 +21°C° 0 mm 3 m/S 729 mmHg 62%
    16:00 +20°C° 0 mm 2 m/S 728 mmHg 66%
    17:00 +19°C° 0 mm 2 m/S 728 mmHg 72%
    18:00 +17°C° 0 mm 2 m/S 728 mmHg 77%
    19:00 +16°C° 0 mm 2 m/S 728 mmHg 82%
    20:00 +15°C° 0 mm 2 m/S 728 mmHg 84%
    21:00 +15°C° 0 mm 2 m/S 728 mmHg 86%
    22:00 +14°C° 0 mm 2 m/S 728 mmHg 88%
    23:00 +14°C° 0 mm 2 m/S 727 mmHg 89%

    Morgen, 24 Oktober, Donnerstag

    Zeit Temperatur Niederschläge Wind Luftdruck Luftfeuchtigkeit
    00:00 +14°C° 0 mm 2 m/S 727 mmHg 90%
    01:00 +13°C° 0 mm 2 m/S 727 mmHg 91%
    02:00 +13°C° 0 mm 2 m/S 726 mmHg 90%
    03:00 +13°C° 0 mm 2 m/S 726 mmHg 90%
    04:00 +12°C° 0 mm 2 m/S 726 mmHg 89%
    05:00 +12°C° 0 mm 2 m/S 726 mmHg 89%
    06:00 +12°C° 0 mm 2 m/S 726 mmHg 88%
    07:00 +12°C° 0 mm 2 m/S 726 mmHg 87%
    08:00 +13°C° 0 mm 3 m/S 726 mmHg 77%
    09:00 +16°C° 0 mm 3 m/S 726 mmHg 68%
    10:00 +18°C° 0 mm 4 m/S 726 mmHg 59%
    11:00 +19°C° 0 mm 3 m/S 726 mmHg 55%
    12:00 +21°C° 0 mm 3 m/S 726 mmHg 51%
    13:00 +22°C° 0 mm 3 m/S 725 mmHg 47%
    14:00 +21°C° 0 mm 3 m/S 725 mmHg 51%
    15:00 +20°C° 0 mm 2 m/S 725 mmHg 56%
    16:00 +20°C° 0 mm 2 m/S 725 mmHg 60%
    17:00 +18°C° 0 mm 2 m/S 725 mmHg 64%
    18:00 +18°C° 0 mm 1 m/S 726 mmHg 68%
    19:00 +16°C° 0 mm 1 m/S 726 mmHg 72%
    20:00 +15°C° 0 mm 1 m/S 726 mmHg 73%
    21:00 +15°C° 0 mm 1 m/S 727 mmHg 74%
    22:00 +15°C° 0 mm 1 m/S 727 mmHg 75%
    23:00 +14°C° 0 mm 1 m/S 727 mmHg 75%

    übermorgen, 25 Oktober, Freitag

    Zeit Temperatur Niederschläge Wind Luftdruck Luftfeuchtigkeit
    00:00 +14°C° 0 mm 1 m/S 728 mmHg 76%
    01:00 +14°C° 0 mm 1 m/S 728 mmHg 77%
    02:00 +13°C° 0 mm 1 m/S 728 mmHg 78%
    03:00 +13°C° 0 mm 1 m/S 728 mmHg 79%
    04:00 +13°C° 0 mm 1 m/S 729 mmHg 80%
    05:00 +13°C° 0 mm 1 m/S 729 mmHg 81%
    06:00 +12°C° 0 mm 1 m/S 730 mmHg 81%
    07:00 +12°C° 0 mm 1 m/S 730 mmHg 82%
    08:00 +15°C° 0 mm 1 m/S 731 mmHg 75%
    09:00 +18°C° 0 mm 1 m/S 731 mmHg 67%
    10:00 +20°C° 0 mm 1 m/S 732 mmHg 60%
    11:00 +21°C° 0 mm 1 m/S 732 mmHg 57%
    12:00 +22°C° 0 mm 1 m/S 732 mmHg 55%
    13:00 +23°C° 0 mm 2 m/S 732 mmHg 52%
    14:00 +22°C° 0 mm 1 m/S 732 mmHg 57%
    15:00 +21°C° 0 mm 1 m/S 732 mmHg 62%
    16:00 +20°C° 0 mm 1 m/S 731 mmHg 66%
    17:00 +18°C° 0 mm 1 m/S 732 mmHg 71%
    18:00 +16°C° 0 mm 1 m/S 732 mmHg 77%
    19:00 +14°C° 0 mm 1 m/S 732 mmHg 82%
    20:00 +14°C° 0 mm 1 m/S 732 mmHg 84%
    21:00 +14°C° 0 mm 1 m/S 732 mmHg 85%
    22:00 +13°C° 0 mm 1 m/S 732 mmHg 86%
    23:00 +13°C° 0 mm 1 m/S 732 mmHg 88%

    26 Oktober, Samstag

    Zeit Temperatur Niederschläge Wind Luftdruck Luftfeuchtigkeit
    00:00 +13°C° 0 mm 1 m/S 732 mmHg 89%
    01:00 +12°C° 0 mm 1 m/S 731 mmHg 90%
    02:00 +12°C° 0 mm 1 m/S 731 mmHg 91%
    03:00 +12°C° 0 mm 2 m/S 731 mmHg 92%
    04:00 +12°C° 0 mm 2 m/S 731 mmHg 92%
    05:00 +12°C° 0 mm 2 m/S 731 mmHg 92%
    06:00 +11°C° 0 mm 1 m/S 731 mmHg 92%
    07:00 +11°C° 0 mm 1 m/S 731 mmHg 92%
    08:00 +13°C° 0 mm 2 m/S 731 mmHg 83%
    09:00 +15°C° 0 mm 2 m/S 732 mmHg 74%
    10:00 +17°C° 0 mm 2 m/S 732 mmHg 65%
    11:00 +18°C° 0 mm 2 m/S 731 mmHg 61%
    12:00 +19°C° 0 mm 2 m/S 731 mmHg 57%
    13:00 +21°C° 0 mm 2 m/S 731 mmHg 52%
    14:00 +20°C° 0 mm 2 m/S 731 mmHg 57%
    15:00 +20°C° 0 mm 1 m/S 730 mmHg 61%
    16:00 +19°C° 0 mm 1 m/S 730 mmHg 65%
    17:00 +18°C° 0 mm 1 m/S 730 mmHg 69%
    18:00 +15°C° 0 mm 1 m/S 730 mmHg 72%
    19:00 +14°C° 0 mm 1 m/S 730 mmHg 76%
    20:00 +14°C° 0 mm 1 m/S 730 mmHg 75%
    21:00 +14°C° 0 mm 1 m/S 730 mmHg 74%
    22:00 +14°C° 0 mm 1 m/S 731 mmHg 73%
    23:00 +14°C° 0 mm 1 m/S 730 mmHg 71%

    27 Oktober, Sonntag

    Zeit Temperatur Niederschläge Wind Luftdruck Luftfeuchtigkeit
    00:00 +13°C° 0 mm 1 m/S 730 mmHg 69%
    01:00 +13°C° 0 mm 1 m/S 730 mmHg 67%
    02:00 +13°C° 0 mm 1 m/S 730 mmHg 67%
    03:00 +13°C° 0 mm 1 m/S 730 mmHg 66%
    04:00 +13°C° 0 mm 1 m/S 730 mmHg 65%
    05:00 +13°C° 0 mm 1 m/S 731 mmHg 66%
    06:00 +12°C° 0 mm 1 m/S 731 mmHg 66%
    07:00 +12°C° 0 mm 1 m/S 731 mmHg 67%
    08:00 +14°C° 0 mm 1 m/S 731 mmHg 62%
    09:00 +18°C° 0 mm 1 m/S 731 mmHg 57%
    10:00 +18°C° 0 mm 0 m/S 732 mmHg 52%
    11:00 +20°C° 0 mm 1 m/S 732 mmHg 50%
    12:00 +21°C° 0 mm 1 m/S 731 mmHg 49%
    13:00 +22°C° 0 mm 1 m/S 731 mmHg 47%
    14:00 +21°C° 0 mm 1 m/S 731 mmHg 52%
    15:00 +20°C° 0 mm 1 m/S 731 mmHg 57%
    16:00 +19°C° 0 mm 1 m/S 731 mmHg 61%
    17:00 +18°C° 0 mm 1 m/S 731 mmHg 64%
    18:00 +15°C° 0 mm 0 m/S 731 mmHg 67%
    19:00 +14°C° 0 mm 0 m/S 731 mmHg 69%
    20:00 +13°C° 0 mm 0 m/S 731 mmHg 70%
    21:00 +13°C° 0 mm 0 m/S 731 mmHg 71%
    22:00 +13°C° 0 mm 0 m/S 731 mmHg 71%
    23:00 +13°C° 0 mm 0 m/S 731 mmHg 73%

    28 Oktober, Montag

    Zeit Temperatur Niederschläge Wind Luftdruck Luftfeuchtigkeit
    00:00 +13°C° 0 mm 0 m/S 731 mmHg 75%
    01:00 +12°C° 0 mm 0 m/S 731 mmHg 76%
    02:00 +13°C° 0 mm 1 m/S 731 mmHg 78%
    03:00 +12°C° 0 mm 1 m/S 731 mmHg 79%
    04:00 +12°C° 0 mm 1 m/S 731 mmHg 80%
    05:00 +12°C° 0 mm 1 m/S 731 mmHg 81%
    06:00 +12°C° 0 mm 1 m/S 731 mmHg 81%
    07:00 +11°C° 0 mm 1 m/S 731 mmHg 81%
    08:00 +12°C° 0 mm 1 m/S 731 mmHg 78%
    09:00 +12°C° 0 mm 1 m/S 731 mmHg 74%
    10:00 +13°C° 0 mm 1 m/S 731 mmHg 71%
    11:00 +13°C° 0 mm 1 m/S 731 mmHg 70%
    12:00 +13°C° 0 mm 2 m/S 731 mmHg 70%
    13:00 +13°C° 0 mm 2 m/S 731 mmHg 69%
    14:00 +12°C° 0.1 mm 2 m/S 731 mmHg 71%
    15:00 +10°C° 0.1 mm 2 m/S 730 mmHg 74%
    16:00 +10°C° 0.1 mm 2 m/S 730 mmHg 76%
    17:00 +9°C° 0.1 mm 2 m/S 730 mmHg 78%
    18:00 +9°C° 0.1 mm 2 m/S 731 mmHg 80%
    19:00 +8°C° 0.1 mm 2 m/S 731 mmHg 82%
    20:00 +8°C° 0.1 mm 2 m/S 731 mmHg 81%
    21:00 +8°C° 0.1 mm 2 m/S 732 mmHg 81%
    22:00 +8°C° 0.1 mm 2 m/S 732 mmHg 81%
    23:00 +8°C° 0.1 mm 2 m/S 732 mmHg 80%

    29 Oktober, Dienstag

    Zeit Temperatur Niederschläge Wind Luftdruck Luftfeuchtigkeit
    00:00 +7°C° 0.1 mm 2 m/S 732 mmHg 80%
    01:00 +7°C° 0.1 mm 2 m/S 732 mmHg 80%
    02:00 +7°C° 0.2 mm 2 m/S 732 mmHg 81%
    03:00 +7°C° 0.2 mm 2 m/S 732 mmHg 81%
    04:00 +6°C° 0.2 mm 2 m/S 732 mmHg 82%
    05:00 +5°C° 0.3 mm 3 m/S 732 mmHg 82%
    06:00 +5°C° 0.3 mm 3 m/S 732 mmHg 83%
    07:00 +4°C° 0.3 mm 3 m/S 733 mmHg 83%
    08:00 +4°C° 0.4 mm 3 m/S 733 mmHg 83%
    09:00 +4°C° 0.4 mm 3 m/S 733 mmHg 82%
    10:00 +4°C° 0.4 mm 3 m/S 734 mmHg 81%
    11:00 +4°C° 0.2 mm 3 m/S 734 mmHg 79%
    12:00 +5°C° 0.2 mm 3 m/S 734 mmHg 77%
    13:00 +5°C° 0.2 mm 3 m/S 734 mmHg 75%
    14:00 +5°C° 0.1 mm 3 m/S 735 mmHg 72%
    15:00 +5°C° 0.1 mm 3 m/S 735 mmHg 69%
    16:00 +5°C° 0.1 mm 3 m/S 735 mmHg 66%
    17:00 +4°C° 0 mm 4 m/S 735 mmHg 65%
    18:00 +3°C° 0 mm 4 m/S 736 mmHg 64%
    19:00 +3°C° 0 mm 4 m/S 737 mmHg 63%
    20:00 +2°C° 0 mm 3 m/S 737 mmHg 64%
    21:00 +1°C° 0 mm 3 m/S 738 mmHg 65%
    22:00 +1°C° 0 mm 3 m/S 738 mmHg 66%
    23:00 +1°C° 0 mm 2 m/S 738 mmHg 68%
    Mehr zeigen